Tracking 18980 objects as of 19-Feb-2018
HD Live streaming from Space Station
objects crossing your sky now

LEMUR 2 PETERG

Track LEMUR 2 PETERG now!
10-day predictions
LEMUR 2 PETERG is classified as:


NORAD ID: 42841
Int'l Code: 2017-042S
Perigee: 592.0 km
Apogee: 608.1 km
Inclination: 97.6 °
Period: 96.5 minutes
Semi major axis: 6971 km
RCS: Unknown
Launch date: July 14, 2017
Source: United States (US)
Launch site: TYURATAM MISSILE AND SPACE COMPLEX (TTMTR)
aabbcc
Your satellite tracking list
Your tracking list is empty




NASA's NSSDC Master Catalog

Two Line Element Set (TLE):
1 42841U 17042S   18049.78950005  .00000508  00000-0  55911-4 0  9997
2 42841  97.6068 316.7896 0011510 225.6635 134.3641 14.91618250 32716
Source of the keplerian elements: AFSPC